User: anonymous   Login
Location: Standeford and Andreas Observatories
(44.1397°N, 93.9969°W)
Time: 15:10:23
(UTC-05:00)
Language:

Cosmos 1500 Rocket - Orbit

View from above orbital plane
View from above orbital plane
View from above satellite
View from above satellite

Ground track
Ground track

The orbit data is extracted from the following two-line orbital elements,

1 14373U 83099B   15149.15955235  .00000223  00000-0  24175-4 0  9992
2 14373 082.5423 225.3603 0020434 177.1766 207.8031 14.83450941709672
Epoch (UTC): 29 May 2015 03:49:45
Eccentricity: 0.0020434
inclination: 82.5423°
perigee height: 604 km
apogee height: 633 km
right ascension of ascending node: 225.3603°
argument of perigee: 177.1766°
revolutions per day: 14.83450941
mean anomaly at epoch: 207.8031°
orbit number at epoch: 70967

The dashed part of the orbit path shows where the satellite is in the earth's shadow,  

DLR